[[{"header":{"parameterUnit":"m.s-1","parameterCategory":1,"la1":30.2991,"la2":30.254,"lo1":-89.0895,"lo2":-89.0444,"dy":0.0017,"dx":0.0017,"nx":28,"ny":28,"refTime":"2023-10-23T03:00:00:Z","depth":0,"parameterNumber":2,"parameterNumberName":"U-component_of_WINDS"},"data":[0,0,0,0,0,0,0,0,0,0,0,0,0,0,0,0,0,0,0,0,0,0,0,0,0,0,0,0,0,0,0,0,0,0,0,0,0,0,0,0,0,0,0,0,0,0,0,0,0,0,0,0,0,0,0,0,0,0,-3.2594,-3.2595,0,-3.2684,-3.2685,-3.2686,-3.2627,-3.2624,-3.2621,-3.2619,-3.2714,-3.2719,-3.2724,0,0,0,0,0,0,0,0,0,0,0,0,0,-3.2374,-3.2378,-3.2594,-3.2595,-3.2596,-3.2684,-3.2685,-3.2686,-3.2627,-3.2624,-3.2621,-3.2618,-3.2712,-3.2718,-3.2724,0,0,0,0,0,0,0,0,0,0,0,0,0,-3.2467,-3.2379,-3.2594,-3.2577,-3.2576,-3.2684,-3.2685,-3.2687,-3.2628,-3.2624,-3.262,-3.2616,-3.271,-3.2717,-3.2725,-3.2854,0,0,-3.2748,-3.2751,0,0,0,0,0,0,0,0,-3.2462,-3.2475,-3.2578,-3.2578,-3.2578,-3.264,-3.2642,-3.2743,-3.2629,-3.2609,-3.2619,-3.2614,-3.2693,-3.2701,-3.2727,-3.2859,-3.2863,-3.2749,-3.2753,-3.2757,-3.2759,0,0,0,0,0,0,0,-3.2456,-3.2471,-3.263,-3.258,-3.258,-3.2566,-3.2575,-3.2661,-3.2673,-3.261,-3.2606,-3.2617,-3.2692,-3.272,-3.2729,-3.2864,-3.2749,-3.2755,-3.276,-3.2763,-3.3108,-3.3112,0,0,0,0,0,0,-3.245,-3.2466,-3.2627,-3.2632,-3.2509,-3.2574,-3.2583,-3.2624,-3.2671,-3.2675,-3.2621,-3.2614,-3.2709,-3.272,-3.2732,-3.2887,-3.2757,-3.2764,-3.2768,-3.3103,-3.3109,-3.3114,0,0,0,0,0,0,-3.2446,-3.2465,-3.2623,-3.2548,-3.2567,-3.2582,-3.2628,-3.2628,-3.2656,-3.2679,-3.2682,-3.2647,-3.2706,-3.2722,-3.2824,-3.289,-3.2767,-3.2774,-3.3098,-3.3105,-3.3111,-3.3198,0,0,0,0,0,0,-3.2439,-3.2464,-3.2512,-3.255,-3.2571,-3.2713,-3.2632,-3.2633,-3.267,-3.2662,-3.2705,-3.2708,-3.2704,-3.2813,-3.2832,-3.2898,-3.278,-3.3092,-3.3101,-3.3109,-3.3189,-3.3207,-3.3222,0,0,0,0,0,-3.2432,-3.2533,-3.2515,-3.2534,-3.2632,-3.2717,-3.2729,-3.2722,-3.2675,-3.2724,-3.2739,-3.2707,-3.288,-3.2824,-3.2845,-3.2914,-3.3088,-3.3098,-3.3108,-3.3182,-3.3203,-3.3222,0,0,0,0,0,0,-3.2502,-3.2537,-3.2517,-3.2634,-3.2673,-3.2706,-3.2768,-3.2745,-3.2798,-3.2789,-3.2778,-3.2789,-3.2896,-3.2916,-3.2853,-3.3043,-3.2977,-3.2992,-3.3026,-3.3046,-3.3062,-3.3055,-3.2786,0,0,0,0,0,-3.2532,-3.2597,-3.2624,-3.2724,-3.2745,-3.2753,-3.279,-3.2781,-3.2821,-3.2837,-3.286,-3.2901,-3.2965,-3.3007,-3.3066,-3.3192,-3.3202,-3.325,-3.3267,-3.328,-3.3293,-3.3362,-3.3384,-3.3147,-3.3147,-3.3147,0,0,-3.2592,-3.262,-3.2661,-3.2739,-3.2768,-3.2837,-3.2767,-3.2842,-3.2894,-3.2849,-3.2947,-3.2966,-3.3011,-3.3126,-3.3178,-3.3146,-3.3361,-3.3293,-3.3304,-3.3309,-3.3375,-3.3397,-3.3417,-3.3154,-3.3153,-3.3152,0,0,-3.2738,-3.2765,-3.2851,-3.2882,-3.2927,-3.2933,-3.2954,-3.2992,-3.3002,-3.3101,-3.3069,-3.3131,-3.324,-3.3274,-3.3306,-3.3467,-3.344,-3.3487,-3.3572,-3.364,-3.3658,-3.3675,-3.3733,-3.3753,-3.35,-3.35,-3.35,0,-3.2807,-3.2908,-3.2899,-3.2977,-3.3012,-3.2976,-3.3064,-3.3095,-3.3158,-3.3184,-3.3146,-3.3284,-3.3312,-3.3435,-3.3475,-3.3502,-3.3526,-3.3481,-3.3656,-3.3673,-3.3688,-3.3743,-3.3765,-3.3506,-3.3505,-3.3504,-3.3504,0,-3.2992,-3.3063,-3.3128,-3.3189,-3.3232,-3.3315,-3.3319,-3.3365,-3.3353,-3.3363,-3.3465,-3.3498,-3.3564,-3.3593,-3.3582,-3.3715,-3.3694,-3.3657,-3.359,-3.3716,-3.3768,-3.3789,-3.3513,-3.3511,-3.351,-3.3508,0,0,-3.3182,-3.3239,-3.3263,-3.329,-3.3339,-3.3394,-3.3476,-3.3541,-3.358,-3.3625,-3.3695,-3.3789,-3.3756,-3.3792,-3.3785,-3.3845,-3.3971,-3.3801,-3.3802,-3.3831,-3.4121,-3.4148,-3.4172,-3.3954,-3.3958,-3.3961,-3.4117,0,-3.333,-3.3472,-3.3467,-3.36,-3.3666,-3.3634,-3.3706,-3.3744,-3.3756,-3.3815,-3.3829,-3.3897,-3.3847,-3.3869,-3.3927,-3.3944,-3.4029,-3.3933,-3.4019,-3.4022,-3.4008,-3.4199,-3.4227,-3.4373,-3.4137,-3.4141,-3.4143,0,-3.3521,-3.3573,-3.3712,-3.3752,-3.378,-3.3844,-3.3904,-3.396,-3.4004,-3.4009,-3.405,-3.4035,-3.412,-3.4052,-3.417,-3.4104,-3.414,-3.4154,-3.4159,-3.4166,-3.4089,-3.4211,-3.4419,-3.444,-3.4175,-3.4172,-3.417,0,-3.3646,-3.375,-3.3848,-3.3873,-3.3922,-3.3968,-3.3991,-3.403,-3.407,-3.4123,-3.4148,-3.4211,-3.4245,-3.4294,-3.4297,-3.4247,-3.4416,-3.4348,-3.4423,-3.4423,-3.4459,-3.4456,-3.4675,-3.4484,-3.4483,-3.4483,-3.4482,0,-3.3811,-3.3897,-3.3904,-3.3964,-3.4061,-3.4055,-3.4152,-3.417,-3.4206,-3.427,-3.4247,-3.4307,-3.4307,-3.4369,-3.4372,-3.447,-3.4485,-3.4492,-3.4492,-3.4494,-3.4493,-3.4516,-3.4506,-3.4489,-3.4487,-3.4486,-3.4485,0,-3.3965,-3.3973,-3.4077,-3.4116,-3.4127,-3.4197,-3.4231,-3.4288,-3.4299,-3.4381,-3.4399,-3.4417,-3.449,-3.4497,-3.4582,-3.4584,-3.4701,-3.469,-3.4686,-3.4684,-3.4758,-3.4751,-3.4999,-3.5031,-3.4819,-3.4822,-3.4823,0,-3.4069,-3.4135,-3.4181,-3.4222,-3.4247,-3.4313,-3.4354,-3.4352,-3.4396,-3.4452,-3.4503,-3.4573,-3.4629,-3.4746,-3.4767,-3.4833,-3.4823,-3.4905,-3.4832,-3.4833,-3.4824,-3.4819,-3.4826,-3.4919,-3.4921,-3.4923,-3.4924,0,-3.4253,-3.4255,-3.4313,-3.4375,-3.4424,-3.4472,-3.4517,-3.4552,-3.4556,-3.4607,-3.468,-3.4724,-3.481,-3.4881,-3.4945,-3.497,-3.4949,-3.4948,-3.4968,-3.497,-3.4965,-3.4969,-3.4724,-3.4941,-3.494,-3.4938,-3.4938,-3.4937,-3.4386,-3.4443,-3.4485,-3.4551,-3.4585,-3.4629,-3.4685,-3.4704,-3.4765,-3.4834,-3.483,-3.4912,-3.4956,-3.504,-3.507,-3.5135,-3.5107,-3.5137,-3.5145,-3.5152,-3.5159,-3.4956,-3.5147,-3.5146,-3.5146,-3.5145,-3.5145,0,-3.4568,-3.4594,-3.4655,-3.4719,-3.4773,-3.4748,-3.4797,-3.4844,-3.4915,-3.4958,-3.5014,-3.5099,-3.5168,-3.5196,-3.5263,-3.531,-3.5302,-3.5328,-3.5324,-3.533,-3.518,-3.5155,-3.5333,-3.5333,-3.5333,-3.5333,-3.5333,-3.5333,-3.4669,-3.4765,-3.4772,-3.4885,-3.4911,-3.499,-3.502,-3.5061,-3.5095,-3.5191,-3.5248,-3.5265,-3.5302,-3.5373,-3.5435,-3.5442,-3.5468,-3.5498,-3.55,-3.5359,-3.534,-3.5322,-3.5299,-3.5503,-3.5504,-3.5644,-3.5645,-3.5646]},{"header":{"parameterUnit":"m.s-1","parameterCategory":1,"la1":30.2991,"la2":30.254,"lo1":-89.0895,"lo2":-89.0444,"dy":0.0017,"dx":0.0017,"nx":28,"ny":28,"refTime":"2023-10-23T03:00:00:Z","depth":0,"parameterNumber":3,"parameterNumberName":"V-component_of_WINDS"},"data":[0,0,0,0,0,0,0,0,0,0,0,0,0,0,0,0,0,0,0,0,0,0,0,0,0,0,0,0,0,0,0,0,0,0,0,0,0,0,0,0,0,0,0,0,0,0,0,0,0,0,0,0,0,0,0,0,0,0,0.3503,0.3504,0,0.3579,0.358,0.358,0.3623,0.3623,0.3623,0.3623,0.3701,0.3703,0.3705,0,0,0,0,0,0,0,0,0,0,0,0,0,0.3396,0.3398,0.3503,0.3504,0.3505,0.3579,0.358,0.3581,0.3623,0.3623,0.3623,0.3623,0.37,0.3702,0.3705,0,0,0,0,0,0,0,0,0,0,0,0,0,0.3454,0.3399,0.3503,0.3535,0.3538,0.3578,0.358,0.3581,0.3623,0.3623,0.3623,0.3623,0.3699,0.3702,0.3705,0.3719,0,0,0.3714,0.3715,0,0,0,0,0,0,0,0,0.3451,0.3458,0.3529,0.3533,0.3537,0.3592,0.3571,0.3627,0.3623,0.3591,0.3623,0.3623,0.3664,0.367,0.3684,0.3723,0.3726,0.3714,0.3716,0.3717,0.3718,0,0,0,0,0,0,0,0.3447,0.3455,0.3533,0.353,0.3535,0.3546,0.3554,0.3582,0.3625,0.3593,0.3597,0.3605,0.3666,0.3681,0.3686,0.3727,0.3714,0.3717,0.3719,0.372,0.3785,0.3785,0,0,0,0,0,0,0.3438,0.3452,0.3531,0.3535,0.3493,0.3548,0.3557,0.3574,0.3625,0.3633,0.3605,0.3607,0.3676,0.3683,0.3689,0.3711,0.3717,0.372,0.3722,0.3785,0.3785,0.3785,0,0,0,0,0,0,0.3435,0.3444,0.3527,0.3494,0.3506,0.3549,0.3568,0.3575,0.359,0.3634,0.3642,0.3612,0.3676,0.3685,0.3712,0.3714,0.3721,0.3724,0.3785,0.3785,0.3785,0.3753,0,0,0,0,0,0,0.3432,0.3443,0.3448,0.3494,0.3507,0.3548,0.3568,0.3576,0.3595,0.3598,0.3642,0.365,0.3677,0.3707,0.3715,0.3718,0.3726,0.3785,0.3785,0.3785,0.3754,0.3752,0.375,0,0,0,0,0,0.3428,0.3436,0.3448,0.3458,0.3515,0.3548,0.3556,0.3587,0.3594,0.3601,0.363,0.3648,0.3713,0.371,0.3719,0.3723,0.3785,0.3785,0.3785,0.3755,0.3752,0.375,0,0,0,0,0,0,0.3388,0.3442,0.3457,0.3479,0.3509,0.3555,0.3564,0.3583,0.3611,0.3613,0.3651,0.366,0.3684,0.3706,0.3702,0.3741,0.3751,0.3753,0.3725,0.3723,0.3721,0.3715,0.3729,0,0,0,0,0,0.3382,0.3405,0.3451,0.3466,0.3481,0.352,0.3535,0.3557,0.359,0.3602,0.3633,0.3664,0.3691,0.3708,0.3736,0.3758,0.3769,0.3765,0.3763,0.3761,0.3762,0.3777,0.3777,0.3785,0.3785,0.3785,0,0,0.3369,0.3402,0.3413,0.3459,0.3485,0.3508,0.353,0.3553,0.3571,0.3606,0.3634,0.3658,0.3695,0.372,0.3733,0.3739,0.3763,0.3761,0.3759,0.3761,0.3777,0.3776,0.3776,0.3785,0.3785,0.3785,0,0,0.3358,0.3385,0.3401,0.3427,0.3466,0.3493,0.3497,0.3541,0.3558,0.3587,0.3615,0.3637,0.3683,0.3709,0.3728,0.373,0.3749,0.3738,0.3727,0.3742,0.3741,0.3741,0.3743,0.3743,0.3739,0.3739,0.3739,0,0.3338,0.3374,0.3407,0.343,0.345,0.3484,0.3502,0.3525,0.3571,0.3584,0.3591,0.3651,0.3678,0.3711,0.3712,0.3726,0.3733,0.3733,0.3739,0.3739,0.3739,0.3741,0.3742,0.3738,0.3738,0.3738,0.3738,0,0.3347,0.3372,0.3381,0.3425,0.3446,0.3466,0.3504,0.3522,0.3543,0.3569,0.3599,0.3633,0.3669,0.3679,0.3699,0.3715,0.3718,0.3731,0.3743,0.3736,0.3739,0.374,0.3735,0.3736,0.3736,0.3737,0,0,0.3311,0.3376,0.3379,0.34,0.3447,0.3467,0.349,0.3526,0.3541,0.3572,0.3593,0.3632,0.3645,0.3667,0.3691,0.3703,0.3705,0.3715,0.3717,0.3713,0.3728,0.3718,0.3718,0.3719,0.3719,0.3719,0.3725,0,0.3307,0.3349,0.3382,0.3412,0.3436,0.347,0.349,0.3521,0.3547,0.3572,0.3601,0.3629,0.3643,0.3657,0.3671,0.3702,0.3709,0.3702,0.3739,0.374,0.3729,0.372,0.3709,0.3713,0.3726,0.3727,0.3727,0,0.3308,0.3339,0.3372,0.3418,0.343,0.3447,0.3484,0.3507,0.3545,0.3563,0.3588,0.3613,0.364,0.365,0.3688,0.3683,0.37,0.3718,0.3719,0.3724,0.3733,0.3725,0.3715,0.3715,0.3729,0.3729,0.3728,0,0.328,0.333,0.3357,0.3374,0.3429,0.344,0.3464,0.3501,0.3522,0.3554,0.3568,0.3603,0.3622,0.365,0.3684,0.3687,0.372,0.3731,0.3736,0.3735,0.3741,0.374,0.3734,0.3751,0.3751,0.3751,0.3751,0,0.3272,0.3291,0.3345,0.3361,0.3384,0.3422,0.3444,0.3471,0.3504,0.3527,0.3559,0.3579,0.3624,0.365,0.3678,0.3706,0.3714,0.3731,0.3738,0.3728,0.3726,0.374,0.3741,0.3752,0.3752,0.3752,0.3752,0,0.3244,0.3281,0.3312,0.3363,0.3376,0.339,0.3434,0.3452,0.348,0.3509,0.3518,0.3563,0.3596,0.3633,0.3679,0.3697,0.3725,0.3735,0.3712,0.3716,0.372,0.3719,0.3722,0.3725,0.374,0.374,0.3739,0,0.3237,0.3253,0.3305,0.3323,0.3346,0.3374,0.3396,0.3435,0.3456,0.3501,0.3514,0.355,0.3581,0.3633,0.367,0.3706,0.3717,0.3716,0.3722,0.3713,0.3718,0.3717,0.372,0.3713,0.3713,0.3713,0.3713,0,0.3221,0.3239,0.3269,0.3306,0.3331,0.3361,0.3393,0.3406,0.3452,0.3475,0.351,0.3534,0.3581,0.3617,0.3658,0.3683,0.3706,0.3711,0.3714,0.3704,0.3691,0.3699,0.3707,0.371,0.371,0.371,0.3711,0.3711,0.3204,0.322,0.326,0.3293,0.3322,0.3352,0.3372,0.3403,0.3433,0.3475,0.3497,0.3532,0.3572,0.3629,0.3654,0.3683,0.369,0.3694,0.3695,0.3696,0.3694,0.3686,0.369,0.369,0.369,0.3691,0.3691,0,0.319,0.3218,0.3248,0.3293,0.3319,0.3339,0.3376,0.3397,0.3428,0.3463,0.3493,0.3535,0.3571,0.3611,0.365,0.3665,0.3677,0.3674,0.3674,0.368,0.3685,0.3678,0.3664,0.3664,0.3664,0.3664,0.3664,0.3664,0.3186,0.3216,0.3239,0.3283,0.3312,0.3347,0.3367,0.3395,0.3423,0.3468,0.3499,0.3525,0.3563,0.3605,0.364,0.3651,0.3664,0.3658,0.3673,0.3677,0.3679,0.3681,0.3675,0.3661,0.3661,0.3666,0.3666,0.3666]}]]